User: anonymous   Login
Location: PACMO
(41.3967°N, 90.3760°W)
Time: 12:31:59
(UTC-05:00)
Language:

BREEZE-M DEB (TANK) - Orbit

View from above orbital plane
View from above orbital plane
View from above satellite
View from above satellite

Ground track
Ground track

The orbit data is extracted from the following two-line orbital elements,

1 31863U 07032B   15086.90256402  .00001598  00000-0  97373-3 0  9996
2 31863 045.9641 330.3100 4996519 001.6210 359.5782 05.51413513154686
Epoch (UTC): 27 March 2015 21:39:41
Eccentricity: 0.4996519
inclination: 45.9641°
perigee height: 393 km
apogee height: 13917 km
right ascension of ascending node: 330.3100°
argument of perigee: 1.6210°
revolutions per day: 5.51413513
mean anomaly at epoch: 359.5782°
orbit number at epoch: 15468

The dashed part of the orbit path shows where the satellite is in the earth's shadow,  

DLR